RYR1887 LPPT-EGSS

Flight info

Callsign RYR1887
Flight time 2h 19m
Altitude 34000
Route IXIDA DCT RIVRO DCT TOSDI DCT MOKOR UN867 EKRAS UM184 DIKRO UM185 ADLOG/N0368F240 M185 TELTU
Aircraft B738/M-SDE2E3FGHIRWXY/LB1

Departure

Time 2026-05-01 10:56
Airport Lisbon Humberto Delgado Airport (LPPT)

Arrival

Time 2026-05-01 13:15
Airport London Stansted Airport (EGSS)
Time Latitude Longitude Altitude Speed Heading
2026-05-01 10:45 38.76444 -9.13805 347 ft 0 kts 168°
2026-05-01 10:48 38.76456 -9.13808 347 ft 3 kts 168°
2026-05-01 10:49 38.76475 -9.13813 366 ft 3 kts 171°
2026-05-01 10:49 38.76494 -9.13814 354 ft 3 kts 197°
2026-05-01 10:49 38.76511 -9.13803 352 ft 3 kts 214°
2026-05-01 10:49 38.76525 -9.13785 351 ft 3 kts 245°
2026-05-01 10:50 38.76527 -9.13777 354 ft 0 kts 257°
2026-05-01 10:52 38.76527 -9.13778 347 ft 1 kts 258°
2026-05-01 10:52 38.76525 -9.13799 349 ft 4 kts 263°
2026-05-01 10:53 38.76519 -9.13857 347 ft 9 kts 259°
2026-05-01 10:53 38.76541 -9.13926 348 ft 10 kts 331°
2026-05-01 10:53 38.76567 -9.13996 347 ft 10 kts 249°
2026-05-01 10:53 38.76525 -9.14062 346 ft 10 kts 228°
2026-05-01 10:54 38.76496 -9.14136 351 ft 10 kts 264°
2026-05-01 10:54 38.76514 -9.14233 339 ft 13 kts 290°
2026-05-01 10:54 38.76547 -9.14335 332 ft 11 kts 293°
2026-05-01 10:54 38.76580 -9.14414 333 ft 9 kts 327°
2026-05-01 10:55 38.76666 -9.14378 333 ft 25 kts 23°
2026-05-01 10:55 38.77036 -9.14179 353 ft 92 kts 22°
2026-05-01 10:55 38.77825 -9.13757 365 ft 152 kts 23°
2026-05-01 10:55 38.78925 -9.13145 601 ft 185 kts 24°
2026-05-01 10:56 38.80147 -9.12412 1267 ft 202 kts 28°
2026-05-01 10:56 38.81434 -9.11557 1953 ft 215 kts 28°
2026-05-01 10:56 38.82755 -9.10625 2571 ft 222 kts 31°
2026-05-01 10:56 38.84168 -9.09579 2908 ft 242 kts 31°
2026-05-01 10:57 38.85524 -9.08563 3500 ft 248 kts 31°
2026-05-01 10:57 38.87074 -9.07398 3905 ft 267 kts 31°
2026-05-01 10:57 38.88701 -9.06175 4700 ft 272 kts 32°
2026-05-01 10:57 38.90254 -9.04829 5663 ft 271 kts 41°
2026-05-01 10:58 38.91657 -9.03177 6452 ft 277 kts 45°
2026-05-01 10:58 38.93038 -9.01406 7183 ft 283 kts 46°
2026-05-01 10:58 38.94432 -8.99586 7957 ft 288 kts 46°
2026-05-01 10:58 38.95829 -8.97767 8716 ft 292 kts 46°
2026-05-01 10:59 38.97273 -8.95897 9479 ft 297 kts 45°
2026-05-01 10:59 38.98741 -8.94007 10225 ft 301 kts 45°
2026-05-01 10:59 39.00259 -8.92061 10654 ft 318 kts 45°
2026-05-01 10:59 39.01892 -8.89975 10835 ft 342 kts 45°
2026-05-01 11:00 39.03610 -8.87784 11297 ft 353 kts 45°
2026-05-01 11:00 39.05369 -8.85546 11992 ft 357 kts 45°
2026-05-01 11:00 39.07141 -8.83291 12733 ft 360 kts 45°
2026-05-01 11:00 39.08930 -8.81014 13444 ft 363 kts 45°
2026-05-01 11:01 39.10734 -8.78718 14122 ft 368 kts 45°
2026-05-01 11:01 39.12564 -8.76388 14737 ft 372 kts 45°
2026-05-01 11:01 39.14412 -8.74035 15375 ft 375 kts 45°
2026-05-01 11:01 39.16277 -8.71657 16003 ft 379 kts 44°
2026-05-01 11:02 39.18162 -8.69252 16604 ft 383 kts 44°
2026-05-01 11:02 39.20068 -8.66819 17210 ft 388 kts 44°
2026-05-01 11:02 39.21994 -8.64358 17833 ft 392 kts 44°
2026-05-01 11:02 39.23280 -8.62714 18234 ft 394 kts 44°
2026-05-01 11:03 39.25234 -8.60214 18783 ft 398 kts 44°
2026-05-01 11:03 39.27848 -8.56867 19565 ft 400 kts 44°
2026-05-01 11:03 39.29830 -8.54324 20105 ft 404 kts 44°
2026-05-01 11:03 39.31833 -8.51753 20607 ft 408 kts 45°
2026-05-01 11:04 39.33846 -8.49168 21148 ft 410 kts 45°
2026-05-01 11:04 39.35875 -8.46559 21687 ft 412 kts 45°
2026-05-01 11:04 39.37253 -8.44786 22046 ft 414 kts 45°
2026-05-01 11:04 39.39304 -8.42146 22544 ft 417 kts 45°
2026-05-01 11:05 39.41340 -8.39523 23049 ft 420 kts 45°
2026-05-01 11:05 39.43440 -8.36814 23551 ft 423 kts 45°
2026-05-01 11:05 39.45502 -8.34153 23980 ft 426 kts 45°
2026-05-01 11:05 39.47607 -8.31434 24368 ft 429 kts 45°
2026-05-01 11:06 39.49725 -8.28694 24760 ft 432 kts 45°
2026-05-01 11:06 39.51859 -8.25933 25126 ft 435 kts 45°
2026-05-01 11:06 39.54002 -8.23157 25488 ft 438 kts 45°
2026-05-01 11:07 39.58347 -8.17520 26218 ft 444 kts 45°
2026-05-01 11:07 39.60537 -8.14675 26555 ft 447 kts 45°
2026-05-01 11:07 39.62736 -8.11815 26892 ft 450 kts 45°
2026-05-01 11:07 39.64954 -8.08928 27236 ft 453 kts 45°
2026-05-01 11:08 39.67186 -8.06020 27561 ft 456 kts 45°
2026-05-01 11:08 39.69433 -8.03090 27860 ft 459 kts 45°
2026-05-01 11:08 39.73967 -7.97169 28470 ft 465 kts 45°
2026-05-01 11:09 39.76253 -7.94178 28803 ft 467 kts 45°
2026-05-01 11:09 39.78551 -7.91170 29098 ft 470 kts 45°
2026-05-01 11:09 39.80861 -7.88142 29394 ft 472 kts 45°
2026-05-01 11:10 39.85500 -7.82052 30083 ft 474 kts 45°
2026-05-01 11:10 39.87820 -7.79002 30465 ft 473 kts 45°
2026-05-01 11:10 39.90103 -7.75998 30812 ft 472 kts 45°
2026-05-01 11:10 39.92413 -7.72955 31156 ft 472 kts 45°
2026-05-01 11:11 39.94720 -7.69912 31463 ft 472 kts 45°
2026-05-01 11:11 39.97026 -7.66868 31783 ft 471 kts 45°
2026-05-01 11:11 39.99329 -7.63826 32119 ft 471 kts 45°
2026-05-01 11:11 40.01628 -7.60785 32453 ft 470 kts 45°
2026-05-01 11:12 40.03916 -7.57755 32761 ft 470 kts 45°
2026-05-01 11:12 40.06210 -7.54715 33065 ft 470 kts 45°
2026-05-01 11:12 40.08501 -7.51676 33407 ft 469 kts 45°
2026-05-01 11:12 40.10785 -7.48641 33737 ft 468 kts 45°
2026-05-01 11:13 40.13063 -7.45613 34060 ft 466 kts 45°
2026-05-01 11:13 40.15335 -7.42590 34171 ft 469 kts 45°
2026-05-01 11:13 40.19937 -7.36456 34168 ft 473 kts 45°
2026-05-01 11:14 40.24514 -7.30343 34151 ft 467 kts 45°
2026-05-01 11:14 40.29043 -7.24281 34172 ft 465 kts 45°
2026-05-01 11:15 40.33559 -7.18225 34162 ft 465 kts 45°
2026-05-01 11:15 40.38081 -7.12148 34161 ft 465 kts 45°
2026-05-01 11:16 40.42598 -7.06065 34157 ft 466 kts 45°
2026-05-01 11:16 40.47124 -6.99959 34165 ft 466 kts 45°
2026-05-01 11:17 40.51647 -6.93842 34158 ft 467 kts 45°
2026-05-01 11:17 40.56150 -6.87742 34161 ft 468 kts 45°
2026-05-01 11:18 40.60687 -6.81581 34158 ft 469 kts 45°
2026-05-01 11:18 40.65225 -6.75407 34150 ft 469 kts 45°
2026-05-01 11:19 40.69771 -6.69209 34151 ft 469 kts 45°
2026-05-01 11:19 40.74309 -6.63008 34160 ft 470 kts 45°
2026-05-01 11:20 40.78819 -6.56834 34154 ft 470 kts 45°
2026-05-01 11:20 40.83354 -6.50611 34155 ft 470 kts 45°
2026-05-01 11:21 40.87886 -6.44380 34158 ft 470 kts 45°
2026-05-01 11:21 40.92413 -6.38141 34151 ft 470 kts 45°
2026-05-01 11:22 40.96936 -6.31897 34162 ft 470 kts 45°
2026-05-01 11:22 41.01526 -6.25815 34157 ft 469 kts 41°
2026-05-01 11:23 41.06388 -6.20060 34162 ft 468 kts 40°
2026-05-01 11:23 41.11276 -6.14339 34156 ft 468 kts 40°
2026-05-01 11:24 41.16121 -6.08581 34151 ft 468 kts 40°
2026-05-01 11:25 41.23365 -5.99880 34157 ft 468 kts 41°
2026-05-01 11:25 41.30595 -5.91167 34159 ft 468 kts 41°
2026-05-01 11:26 41.37824 -5.82432 34154 ft 468 kts 41°
2026-05-01 11:27 41.42605 -5.76638 34160 ft 467 kts 41°
2026-05-01 11:27 41.47411 -5.70804 34155 ft 468 kts 41°
2026-05-01 11:28 41.52277 -5.65048 34148 ft 466 kts 35°
2026-05-01 11:28 41.57885 -5.60863 34175 ft 461 kts 21°
2026-05-01 11:29 41.66717 -5.55708 34162 ft 462 kts 21°
2026-05-01 11:30 41.75526 -5.50485 34158 ft 462 kts 21°
2026-05-01 11:30 41.81395 -5.46951 34163 ft 462 kts 21°
2026-05-01 11:31 41.87250 -5.43409 34159 ft 462 kts 22°
2026-05-01 11:31 41.93108 -5.39859 34167 ft 461 kts 21°
2026-05-01 11:32 41.98922 -5.36330 34156 ft 461 kts 22°
2026-05-01 11:32 42.04798 -5.32757 34163 ft 461 kts 22°
2026-05-01 11:33 42.10600 -5.29222 34156 ft 460 kts 22°
2026-05-01 11:33 42.16436 -5.25659 34158 ft 460 kts 22°
2026-05-01 11:34 42.22258 -5.22098 34158 ft 460 kts 22°
2026-05-01 11:34 42.28083 -5.18527 34158 ft 459 kts 22°
2026-05-01 11:35 42.33893 -5.14959 34158 ft 459 kts 22°
2026-05-01 11:35 42.39695 -5.11387 34162 ft 458 kts 22°
2026-05-01 11:36 42.45499 -5.07808 34154 ft 458 kts 22°
2026-05-01 11:36 42.51297 -5.04225 34165 ft 457 kts 22°
2026-05-01 11:37 42.57081 -5.00643 34166 ft 457 kts 22°
2026-05-01 11:37 42.62872 -4.97050 34158 ft 457 kts 22°
2026-05-01 11:38 42.68654 -4.93455 34157 ft 457 kts 22°
2026-05-01 11:38 42.74440 -4.89849 34169 ft 457 kts 22°
2026-05-01 11:39 42.80185 -4.86262 34160 ft 457 kts 22°
2026-05-01 11:39 42.85964 -4.82647 34169 ft 457 kts 22°
2026-05-01 11:40 42.91728 -4.79033 34167 ft 456 kts 22°
2026-05-01 11:40 42.97485 -4.75417 34168 ft 454 kts 24°
2026-05-01 11:41 43.03220 -4.71806 34156 ft 454 kts 24°
2026-05-01 11:41 43.08948 -4.68192 34165 ft 454 kts 24°
2026-05-01 11:42 43.14688 -4.64564 34158 ft 454 kts 24°
2026-05-01 11:42 43.20434 -4.60924 34153 ft 455 kts 24°
2026-05-01 11:43 43.26179 -4.57277 34160 ft 455 kts 24°
2026-05-01 11:43 43.31935 -4.53616 34150 ft 455 kts 24°
2026-05-01 11:44 43.40550 -4.48121 34156 ft 455 kts 24°
2026-05-01 11:44 43.46255 -4.44473 34157 ft 455 kts 24°
2026-05-01 11:45 43.51994 -4.40795 34158 ft 454 kts 24°
2026-05-01 11:45 43.57718 -4.37120 34159 ft 454 kts 24°
2026-05-01 11:46 43.63443 -4.33436 34158 ft 453 kts 24°
2026-05-01 11:46 43.69152 -4.29754 34157 ft 453 kts 24°
2026-05-01 11:47 43.74861 -4.26065 34160 ft 452 kts 24°
2026-05-01 11:47 43.80555 -4.22377 34159 ft 452 kts 24°
2026-05-01 11:48 43.86251 -4.18681 34161 ft 452 kts 24°
2026-05-01 11:48 43.91901 -4.15007 34166 ft 451 kts 24°
2026-05-01 11:49 43.97577 -4.11308 34165 ft 451 kts 24°
2026-05-01 11:49 44.03253 -4.07600 34164 ft 450 kts 24°
2026-05-01 11:50 44.08913 -4.03896 34166 ft 450 kts 24°
2026-05-01 11:50 44.14573 -4.00184 34171 ft 449 kts 24°
2026-05-01 11:51 44.20224 -3.96470 34169 ft 448 kts 24°
2026-05-01 11:51 44.25858 -3.92758 34172 ft 448 kts 24°
2026-05-01 11:52 44.31501 -3.89033 34178 ft 447 kts 24°
2026-05-01 11:52 44.37121 -3.85316 34182 ft 447 kts 24°
2026-05-01 11:53 44.42742 -3.81590 34180 ft 447 kts 24°
2026-05-01 11:53 44.47401 -3.78495 34187 ft 446 kts 24°
2026-05-01 11:54 44.53922 -3.74155 34186 ft 446 kts 24°
2026-05-01 11:54 44.58621 -3.71020 34190 ft 446 kts 24°
2026-05-01 11:55 44.64219 -3.67279 34191 ft 446 kts 24°
2026-05-01 11:55 44.69822 -3.63526 34195 ft 446 kts 24°
2026-05-01 11:56 44.75416 -3.59771 34194 ft 446 kts 24°
2026-05-01 11:56 44.81024 -3.55999 34217 ft 449 kts 24°
2026-05-01 11:57 44.86689 -3.52182 34359 ft 458 kts 23°
2026-05-01 11:57 44.89574 -3.50234 34519 ft 460 kts 24°
2026-05-01 11:57 44.92459 -3.48283 34771 ft 459 kts 24°
2026-05-01 11:58 44.95325 -3.46342 35091 ft 457 kts 24°
2026-05-01 11:58 44.98190 -3.44400 35342 ft 456 kts 24°
2026-05-01 11:58 45.03957 -3.40486 35754 ft 457 kts 24°
2026-05-01 11:59 45.06783 -3.38565 35981 ft 456 kts 24°
2026-05-01 11:59 45.09644 -3.36617 36207 ft 456 kts 24°
2026-05-01 11:59 45.12504 -3.34669 36415 ft 456 kts 24°
2026-05-01 12:00 45.18212 -3.30773 36828 ft 455 kts 24°
2026-05-01 12:00 45.21067 -3.28822 37049 ft 455 kts 24°
2026-05-01 12:00 45.26770 -3.24916 37418 ft 455 kts 24°
2026-05-01 12:01 45.29624 -3.22959 37579 ft 455 kts 24°
2026-05-01 12:01 45.32469 -3.21006 37794 ft 455 kts 24°
2026-05-01 12:01 45.35317 -3.19047 37974 ft 454 kts 24°
2026-05-01 12:01 45.38163 -3.17089 38140 ft 454 kts 24°
2026-05-01 12:02 45.41008 -3.15128 38218 ft 455 kts 24°
2026-05-01 12:02 45.46721 -3.11186 38222 ft 456 kts 24°
2026-05-01 12:03 45.52417 -3.07245 38221 ft 454 kts 24°
2026-05-01 12:03 45.58078 -3.03320 38224 ft 452 kts 24°
2026-05-01 12:04 45.63723 -2.99397 38223 ft 450 kts 24°
2026-05-01 12:04 45.69346 -2.95481 38230 ft 450 kts 24°
2026-05-01 12:05 45.74975 -2.91552 38228 ft 450 kts 25°
2026-05-01 12:05 45.83423 -2.85639 38228 ft 452 kts 25°
2026-05-01 12:06 45.89080 -2.81669 38235 ft 453 kts 25°
2026-05-01 12:06 45.94749 -2.77680 38238 ft 455 kts 25°
2026-05-01 12:07 46.00440 -2.73667 38236 ft 457 kts 25°
2026-05-01 12:07 46.06160 -2.69624 38242 ft 459 kts 25°
2026-05-01 12:08 46.11899 -2.65558 38244 ft 460 kts 25°
2026-05-01 12:08 46.17646 -2.61476 38242 ft 461 kts 25°
2026-05-01 12:09 46.23413 -2.57371 38242 ft 462 kts 25°
2026-05-01 12:09 46.29146 -2.53281 38230 ft 463 kts 25°
2026-05-01 12:10 46.37794 -2.47092 38236 ft 462 kts 25°
2026-05-01 12:11 46.46434 -2.40887 38240 ft 461 kts 25°
2026-05-01 12:11 46.52174 -2.36753 38231 ft 461 kts 25°
2026-05-01 12:12 46.57912 -2.32610 38236 ft 460 kts 25°
2026-05-01 12:12 46.63633 -2.28470 38225 ft 459 kts 25°
2026-05-01 12:13 46.69354 -2.24320 38220 ft 459 kts 26°
2026-05-01 12:13 46.75063 -2.20169 38222 ft 459 kts 26°
2026-05-01 12:14 46.80777 -2.16004 38218 ft 459 kts 26°
2026-05-01 12:14 46.86483 -2.11834 38214 ft 459 kts 26°
2026-05-01 12:15 46.92202 -2.07645 38199 ft 460 kts 26°
2026-05-01 12:15 46.97916 -2.03450 38203 ft 460 kts 26°
2026-05-01 12:16 47.03931 -2.00405 38215 ft 457 kts
2026-05-01 12:16 47.10204 -1.98931 38214 ft 457 kts
2026-05-01 12:17 47.16468 -1.97485 38211 ft 458 kts
2026-05-01 12:17 47.22803 -1.95928 38210 ft 459 kts
2026-05-01 12:18 47.29101 -1.94351 38203 ft 460 kts
2026-05-01 12:18 47.35372 -1.92460 38195 ft 461 kts 17°
2026-05-01 12:19 47.41183 -1.88614 38202 ft 461 kts 26°
2026-05-01 12:19 47.46919 -1.84352 38206 ft 461 kts 26°
2026-05-01 12:20 47.52667 -1.80129 38194 ft 461 kts 25°
2026-05-01 12:20 47.58416 -1.75958 38197 ft 460 kts 25°
2026-05-01 12:21 47.64170 -1.71792 38208 ft 460 kts 25°
2026-05-01 12:21 47.69908 -1.67627 38199 ft 459 kts 25°
2026-05-01 12:22 47.75642 -1.63451 38193 ft 458 kts 25°
2026-05-01 12:22 47.81365 -1.59272 38204 ft 457 kts 25°
2026-05-01 12:23 47.87067 -1.55098 38207 ft 456 kts 26°
2026-05-01 12:23 47.92756 -1.50923 38206 ft 456 kts 26°
2026-05-01 12:24 47.98445 -1.46742 38205 ft 455 kts 25°
2026-05-01 12:24 48.01380 -1.45046 38196 ft 453 kts 14°
2026-05-01 12:24 48.04454 -1.44058 38212 ft 451 kts
2026-05-01 12:25 48.13812 -1.44235 38208 ft 448 kts 355°
2026-05-01 12:26 48.19999 -1.44783 38200 ft 448 kts 355°
2026-05-01 12:26 48.29351 -1.45505 38205 ft 449 kts 356°
2026-05-01 12:27 48.38709 -1.46175 38207 ft 449 kts 356°
2026-05-01 12:28 48.48087 -1.46850 38204 ft 450 kts 356°
2026-05-01 12:29 48.57494 -1.47532 38210 ft 451 kts 356°
2026-05-01 12:29 48.66910 -1.48216 38216 ft 452 kts 356°
2026-05-01 12:30 48.76347 -1.48906 38216 ft 453 kts 356°
2026-05-01 12:31 48.82638 -1.49367 38222 ft 453 kts 356°
2026-05-01 12:31 48.88934 -1.49529 38215 ft 454 kts
2026-05-01 12:32 48.95046 -1.47260 38234 ft 453 kts 20°
2026-05-01 12:32 49.03892 -1.42150 38223 ft 454 kts 21°
2026-05-01 12:33 49.09774 -1.38784 38220 ft 454 kts 20°
2026-05-01 12:33 49.15732 -1.35420 38222 ft 454 kts 20°
2026-05-01 12:34 49.21617 -1.32104 38215 ft 454 kts 20°
2026-05-01 12:34 49.27574 -1.28737 38213 ft 453 kts 20°
2026-05-01 12:35 49.33453 -1.25403 38210 ft 453 kts 20°
2026-05-01 12:35 49.39385 -1.22030 38210 ft 453 kts 20°
2026-05-01 12:36 49.45272 -1.18674 38205 ft 453 kts 20°
2026-05-01 12:36 49.51168 -1.15304 38206 ft 452 kts 20°
2026-05-01 12:37 49.57054 -1.11882 38202 ft 452 kts 25°
2026-05-01 12:37 49.62351 -1.06784 38222 ft 448 kts 39°
2026-05-01 12:38 49.67146 -1.00900 38195 ft 433 kts 39°
2026-05-01 12:38 49.71892 -0.95222 38210 ft 430 kts 38°
2026-05-01 12:39 49.76214 -0.91397 37636 ft 444 kts 21°
2026-05-01 12:39 49.79250 -0.90054 36883 ft 459 kts
2026-05-01 12:39 49.82428 -0.89479 36226 ft 462 kts
2026-05-01 12:40 49.85633 -0.89099 35555 ft 462 kts
2026-05-01 12:40 49.88846 -0.88738 34904 ft 463 kts
2026-05-01 12:40 49.92067 -0.88338 34261 ft 465 kts
2026-05-01 12:40 49.95288 -0.87893 33528 ft 463 kts
2026-05-01 12:41 49.98489 -0.87429 32798 ft 460 kts
2026-05-01 12:41 50.01662 -0.86965 32098 ft 458 kts
2026-05-01 12:41 50.04826 -0.86513 31408 ft 455 kts
2026-05-01 12:41 50.07975 -0.86069 30742 ft 453 kts
2026-05-01 12:42 50.11100 -0.85629 30059 ft 451 kts
2026-05-01 12:42 50.14218 -0.85190 29295 ft 448 kts
2026-05-01 12:42 50.17317 -0.84751 28553 ft 445 kts
2026-05-01 12:42 50.20395 -0.84314 27911 ft 441 kts
2026-05-01 12:43 50.23395 -0.83888 27618 ft 429 kts
2026-05-01 12:43 50.26345 -0.83467 27203 ft 420 kts
2026-05-01 12:43 50.29234 -0.83055 26778 ft 413 kts
2026-05-01 12:43 50.32076 -0.82649 26358 ft 407 kts
2026-05-01 12:44 50.34873 -0.82245 25969 ft 400 kts
2026-05-01 12:44 50.37620 -0.81844 25581 ft 395 kts
2026-05-01 12:44 50.43093 -0.81040 25232 ft 396 kts
2026-05-01 12:45 50.48481 -0.80249 25180 ft 381 kts
2026-05-01 12:45 50.51128 -0.79860 25201 ft 375 kts
2026-05-01 12:45 50.53723 -0.79478 25196 ft 375 kts
2026-05-01 12:46 50.56311 -0.79095 24865 ft 384 kts
2026-05-01 12:46 50.58989 -0.78700 24379 ft 386 kts
2026-05-01 12:46 50.61663 -0.78306 23974 ft 385 kts
2026-05-01 12:46 50.64325 -0.77919 23515 ft 383 kts
2026-05-01 12:47 50.66976 -0.77538 23030 ft 381 kts
2026-05-01 12:47 50.69609 -0.77160 22537 ft 379 kts
2026-05-01 12:47 50.72224 -0.76784 22072 ft 375 kts
2026-05-01 12:47 50.74816 -0.76411 21606 ft 372 kts
2026-05-01 12:48 50.77383 -0.76040 21142 ft 369 kts
2026-05-01 12:48 50.79934 -0.75670 20691 ft 366 kts
2026-05-01 12:48 50.82407 -0.74849 20220 ft 362 kts 22°
2026-05-01 12:48 50.84731 -0.73386 19813 ft 358 kts 25°
2026-05-01 12:49 50.87045 -0.71849 19372 ft 356 kts 25°
2026-05-01 12:49 50.89288 -0.70349 18955 ft 354 kts 25°
2026-05-01 12:49 50.91553 -0.68844 18532 ft 352 kts 25°
2026-05-01 12:49 50.93796 -0.67367 18201 ft 345 kts 24°
2026-05-01 12:50 50.95967 -0.65950 18175 ft 330 kts 24°
2026-05-01 12:50 50.98063 -0.64587 18174 ft 323 kts 24°
2026-05-01 12:50 51.00148 -0.63232 18190 ft 325 kts 24°
2026-05-01 12:50 51.02253 -0.61862 18190 ft 329 kts 24°
2026-05-01 12:51 51.04379 -0.60482 18174 ft 330 kts 24°
2026-05-01 12:51 51.06499 -0.59106 18161 ft 328 kts 24°
2026-05-01 12:51 51.10718 -0.56359 18154 ft 327 kts 24°
2026-05-01 12:52 51.12823 -0.54989 18160 ft 326 kts 25°
2026-05-01 12:52 51.17024 -0.52248 18157 ft 327 kts 24°
2026-05-01 12:52 51.19131 -0.50872 18165 ft 327 kts 24°
2026-05-01 12:53 51.23357 -0.48106 18162 ft 329 kts 24°
2026-05-01 12:53 51.25478 -0.46717 18157 ft 330 kts 24°
2026-05-01 12:53 51.27601 -0.45324 18160 ft 330 kts 24°
2026-05-01 12:54 51.29725 -0.43930 18154 ft 331 kts 24°
2026-05-01 12:54 51.33990 -0.41126 18156 ft 332 kts 25°
2026-05-01 12:54 51.36127 -0.39719 18157 ft 331 kts 25°
2026-05-01 12:55 51.40390 -0.36908 18155 ft 331 kts 24°
2026-05-01 12:55 51.42523 -0.35501 18062 ft 332 kts 24°
2026-05-01 12:55 51.44667 -0.34031 17609 ft 336 kts 27°
2026-05-01 12:56 51.46756 -0.32460 17204 ft 335 kts 28°
2026-05-01 12:56 51.48852 -0.30839 16796 ft 333 kts 28°
2026-05-01 12:56 51.50929 -0.29225 16390 ft 331 kts 28°
2026-05-01 12:56 51.52989 -0.27629 16160 ft 323 kts 28°
2026-05-01 12:57 51.54990 -0.26086 16152 ft 317 kts 28°
2026-05-01 12:57 51.58985 -0.23007 16160 ft 319 kts 28°
2026-05-01 12:57 51.60984 -0.21468 16182 ft 319 kts 28°
2026-05-01 12:58 51.62989 -0.19926 16188 ft 319 kts 28°
2026-05-01 12:58 51.64993 -0.18383 16185 ft 319 kts 28°
2026-05-01 12:58 51.66997 -0.16837 16146 ft 320 kts 28°
2026-05-01 12:59 51.71098 -0.13672 15171 ft 330 kts 28°
2026-05-01 12:59 51.73174 -0.12068 14676 ft 332 kts 28°
2026-05-01 12:59 51.77369 -0.08929 13716 ft 332 kts 25°
2026-05-01 13:00 51.81574 -0.06022 12773 ft 324 kts 25°
2026-05-01 13:00 51.83635 -0.04606 12361 ft 319 kts 24°
2026-05-01 13:01 51.87663 -0.01798 11558 ft 311 kts 25°
2026-05-01 13:01 51.89631 -0.00414 11167 ft 307 kts 25°
2026-05-01 13:01 51.93527 0.02336 10304 ft 303 kts 25°
2026-05-01 13:02 51.95486 0.03578 9850 ft 302 kts 12°
2026-05-01 13:07 51.96029 0.17137 5641 ft 220 kts 176°
2026-05-01 13:07 51.94516 0.17386 5374 ft 218 kts 176°
2026-05-01 13:07 51.93012 0.17635 5073 ft 216 kts 176°
2026-05-01 13:08 51.91539 0.17504 4791 ft 212 kts 201°
2026-05-01 13:08 51.90390 0.16082 4517 ft 213 kts 234°
2026-05-01 13:08 51.89814 0.13853 4266 ft 218 kts 250°
2026-05-01 13:08 51.89377 0.11481 3994 ft 221 kts 250°
2026-05-01 13:09 51.88955 0.09083 3735 ft 222 kts 251°
2026-05-01 13:09 51.88529 0.06670 3454 ft 223 kts 251°
2026-05-01 13:09 51.87865 0.04450 3105 ft 220 kts 223°
2026-05-01 13:09 51.86698 0.02935 2941 ft 213 kts 215°
2026-05-01 13:10 51.85515 0.01503 2757 ft 211 kts 215°
2026-05-01 13:10 51.84324 0.00150 2631 ft 209 kts 201°
2026-05-01 13:10 51.82907 -0.00498 2490 ft 213 kts 192°
2026-05-01 13:10 51.81467 -0.01047 2508 ft 215 kts 191°
2026-05-01 13:11 51.79996 -0.01599 2405 ft 216 kts 192°
2026-05-01 13:11 51.78574 -0.01647 2456 ft 203 kts 157°
2026-05-01 13:11 51.77466 -0.00230 2452 ft 213 kts 124°
2026-05-01 13:11 51.77069 0.02001 2436 ft 206 kts 89°
2026-05-01 13:12 51.77303 0.04181 2503 ft 192 kts 81°
2026-05-01 13:12 51.77613 0.06241 2501 ft 186 kts 72°
2026-05-01 13:12 51.78359 0.07913 2504 ft 180 kts 51°
2026-05-01 13:12 51.79205 0.09398 2453 ft 180 kts 49°
2026-05-01 13:13 51.80114 0.10858 2367 ft 194 kts 46°
2026-05-01 13:13 51.81116 0.12371 2130 ft 199 kts 46°
2026-05-01 13:13 51.82140 0.13863 1904 ft 192 kts 46°
2026-05-01 13:13 51.83097 0.15343 1628 ft 186 kts 47°
2026-05-01 13:14 51.84024 0.16744 1409 ft 178 kts 45°
2026-05-01 13:14 51.84914 0.18064 1113 ft 173 kts 46°
2026-05-01 13:14 51.85787 0.19340 979 ft 164 kts 49°
2026-05-01 13:14 51.86575 0.20580 719 ft 157 kts 46°
2026-05-01 13:15 51.87349 0.21738 478 ft 145 kts 44°
2026-05-01 13:15 51.88050 0.22805 347 ft 130 kts 43°
2026-05-01 13:15 51.88649 0.23705 337 ft 101 kts 43°
2026-05-01 13:15 51.88983 0.24206 338 ft 33 kts 47°
2026-05-01 13:16 51.89077 0.24447 338 ft 17 kts 66°
2026-05-01 13:16 51.89102 0.24550 339 ft 9 kts 69°
2026-05-01 13:16 51.89123 0.24631 337 ft 7 kts 68°
2026-05-01 13:17 51.89161 0.24792 345 ft 3 kts 70°
2026-05-01 13:17 51.89166 0.24815 350 ft 0 kts 70°
2026-05-01 13:19 51.89169 0.24837 347 ft 4 kts 85°
2026-05-01 13:19 51.89159 0.24885 352 ft 5 kts 111°
2026-05-01 13:19 51.89209 0.25037 348 ft 10 kts 52°
2026-05-01 13:20 51.89239 0.25108 348 ft 7 kts 58°
2026-05-01 13:20 51.89267 0.25179 350 ft 8 kts 57°
2026-05-01 13:20 51.89311 0.25251 351 ft 10 kts 42°
2026-05-01 13:21 51.89418 0.25431 350 ft 11 kts 69°
2026-05-01 13:21 51.89387 0.25532 354 ft 8 kts 144°
2026-05-01 13:21 51.89362 0.25559 350 ft 0 kts 146°
2026-05-01 13:22 51.89363 0.25583 350 ft 6 kts 65°
2026-05-01 13:22 51.89405 0.25626 348 ft 8 kts 32°
2026-05-01 13:22 51.89446 0.25681 355 ft 7 kts 44°
2026-05-01 13:22 51.89482 0.25739 348 ft 7 kts 44°
2026-05-01 13:23 51.89518 0.25794 351 ft 7 kts 44°
2026-05-01 13:23 51.89526 0.25868 350 ft 8 kts 126°
2026-05-01 13:23 51.89484 0.25905 353 ft 7 kts 202°
2026-05-01 13:23 51.89460 0.25877 354 ft 5 kts 217°
2026-05-01 13:24 51.89449 0.25863 348 ft 0 kts 217°